User: anonymous   Login
Location: Edoum�
(0.9447°N, 10.6482°E)
Time: 17:41:02
(UTC+00:00)
Language:

ARIANE 5 DEB (SYLDA) - Orbit

View from above orbital plane
View from above orbital plane
View from above satellite
View from above satellite

Ground track
Ground track

The orbit data is extracted from the following two-line orbital elements,

1 32255U 07044D   21136.93989632 -.00000177  00000-0 -17015-3 0  9998
2 32255   4.5194  49.2069 7174374 357.5183   8.7179  2.26333496112393
Epoch (UTC): 16 May 2021 22:33:27
Eccentricity: 0.7174374
inclination: 4.5194°
perigee height: 546 km
apogee height: 35705 km
right ascension of ascending node: 49.2069°
argument of perigee: 357.5183°
revolutions per day: 2.26333496
mean anomaly at epoch: 8.7179°
orbit number at epoch: 11239

The dashed part of the orbit path shows where the satellite is in the earth's shadow,  

DLR